Weather History for Paso Robles, CA

Change the Weather History Date:

Monday, November 11, 2013

  Actual Average Record
Temperature  
Mean Temperature 57 °F 54 °F  
Max Temperature 80 °F 69 °F 85 °F (1956)
Min Temperature 33 °F 39 °F 26 °F (2012)
Degree Days  
Heating Degree Days 8 11  
Month to date heating degree days 90 106  
Since 1 July heating degree days 240 276  
Cooling Degree Days 0 0  
Month to date cooling degree days 0 0  
Year to date cooling degree days 1173 926  
Growing Degree Days 6 (Base 50)    
Moisture  
Dew Point 35 °F    
Average Humidity 52    
Maximum Humidity 89    
Minimum Humidity 15    
Precipitation  
Precipitation 0.00 in 0.03 in 1.02 in (1976)
Month to date precipitation 0.00 0.37  
Year to date precipitation 1.48 10.11  
Since 1 July precipitation 0.02 1.32  
Sea Level Pressure  
Sea Level Pressure 30.12 in    
Wind  
Wind Speed 3 mph (SSW)    
Max Wind Speed 9 mph    
Max Gust Speed -    
Visibility 10 miles    
Events      
T = Trace of Precipitation, MM = Missing Value Source: NWS Daily Summary

Daily Weather History Graph

Daily Weather History Graph

Search for Another Location

Airport:

Trip Planner

Search our weather history database for the weather conditions in past years. The results will help you decide how hot, cold, wet, or windy it might be!

Date:

Astronomy

Nov. 11, 2013 Rise Set
Actual Time 6:34 AM PST 4:58 PM PST
Civil Twilight 6:07 AM PST 5:25 PM PST
Nautical Twilight 5:37 AM PST 5:55 PM PST
Astronomical Twilight 5:06 AM PST 6:25 PM PST
Moon 1:31 PM PST (11/11) 12:37 AM PST (11/11)
Length of Visible Light 11h 17m
Length of Day
10h 23m
Waxing Gibbous, 67% of the Moon is Illuminated
Nov 11
Waxing Gibbous
Nov 17
Full
Nov 25
Last Quarter
Dec 2
New
Dec 9
First Quarter

Hourly Weather History & Observations

Time (PST) Temp. Windchill Dew Point Humidity Pressure Visibility Wind Dir Wind Speed Gust Speed Precip Events Conditions
12:53 AM 42.1 °F - 37.0 °F 82% 30.11 in 10.0 mi Calm Calm - N/A   Clear
1:53 AM 41.0 °F - 36.0 °F 82% 30.11 in 10.0 mi Calm Calm - N/A   Clear
2:53 AM 39.9 °F 37.8 °F 35.1 °F 83% 30.11 in 10.0 mi SSW 3.5 mph - N/A   Clear
3:53 AM 35.1 °F 30.1 °F 30.9 °F 85% 30.11 in 10.0 mi East 5.8 mph - N/A   Clear
4:53 AM 36.0 °F - 32.0 °F 86% 30.12 in 10.0 mi Calm Calm - N/A   Clear
5:53 AM 33.1 °F - 30.0 °F 89% 30.13 in 10.0 mi Calm Calm - N/A   Clear
6:53 AM 35.1 °F - 30.9 °F 85% 30.14 in 10.0 mi Calm Calm - N/A   Clear
7:53 AM 39.9 °F - 33.1 °F 77% 30.15 in 10.0 mi Calm Calm - N/A   Clear
8:53 AM 46.0 °F - 37.0 °F 71% 30.17 in 10.0 mi Calm Calm - N/A   Clear
9:53 AM 54.0 °F - 33.1 °F 45% 30.15 in 10.0 mi Calm Calm - N/A   Clear
10:53 AM 61.0 °F - 35.1 °F 38% 30.13 in 10.0 mi Calm Calm - N/A   Clear
11:53 AM 66.9 °F - 35.1 °F 31% 30.10 in 10.0 mi Calm Calm - N/A   Clear
12:53 PM 72.0 °F - 35.1 °F 26% 30.06 in 10.0 mi Calm Calm - N/A   Clear
1:53 PM 78.1 °F - 30.9 °F 18% 30.04 in 10.0 mi Calm Calm - N/A   Clear
2:53 PM 79.0 °F - 30.9 °F 17% 30.04 in 10.0 mi West 8.1 mph - N/A   Clear
3:53 PM 78.1 °F - 26.1 °F 15% 30.05 in 10.0 mi SSW 6.9 mph - N/A   Clear
4:53 PM 72.0 °F - 30.9 °F 22% 30.06 in 10.0 mi SSW 8.1 mph - N/A   Clear
5:53 PM 66.9 °F - 42.1 °F 40% 30.09 in 10.0 mi South 8.1 mph - N/A   Clear
6:53 PM 64.9 °F - 39.0 °F 39% 30.11 in 10.0 mi South 8.1 mph - N/A   Clear
7:53 PM 62.1 °F - 43.0 °F 50% 30.14 in 10.0 mi SSW 4.6 mph - N/A   Clear
8:53 PM 60.1 °F - 41.0 °F 49% 30.16 in 10.0 mi SW 3.5 mph - N/A   Clear
9:53 PM 59.0 °F - 37.0 °F 44% 30.17 in 10.0 mi Calm Calm - N/A   Clear
10:53 PM 57.0 °F - 37.9 °F 49% 30.16 in 10.0 mi Calm Calm - N/A   Clear
11:53 PM 53.1 °F - 37.0 °F 55% 30.17 in 10.0 mi SE 3.5 mph - N/A   Clear